GFSMW_con_lsi_132.txt.gz
Lid_Strength_Index
7 6 3 2 2 3 2 2 2 1 1 3 2 2 2 1 1 0 0 0 1 0 0 0 1 2 3 3 3 5 5 4 2 3 4 4 4 3 2 2 2 1 0
7 5 3 3 3 3 2 3 2 2 3 2 2 2 1 1 1 0 1 0 0 0 0 1 1 2 2 2 3 2 2 3 3 4 5 6 4 3 2 2 1 1 1
6 7 5 4 3 3 2 2 2 2 1 1 1 1 1 2 2 2 2 1 0 0 0 2 2 1 2 2 2 2 2 4 4 4 5 6 7 5 4 3 1 2 1
5 7 7 5 3 3 2 2 2 1 1 1 2 2 2 3 2 2 1 2 1 1 1 2 1 2 2 2 2 1 3 5 4 4 3 4 4 6 6 4 2 2 2
6 7 7 7 6 3 2 3 3 3 1 1 1 2 3 3 4 4 3 3 2 2 2 2 2 2 2 2 3 1 3 4 5 4 4 4 5 5 6 6 4 3 2
6 6 7 7 5 4 2 2 2 2 3 1 2 3 3 3 3 3 2 3 3 2 2 2 2 2 3 3 3 3 3 4 5 3 3 4 5 5 5 6 5 5 4
6 6 6 4 5 4 3 2 2 3 2 2 2 3 3 3 3 4 3 3 4 4 3 2 2 3 3 4 3 4 3 3 3 3 3 4 4 3 5 5 6 6 6
6 5 5 5 4 3 4 3 3 3 4 4 3 4 3 2 3 3 4 3 4 4 3 3 4 3 3 3 4 4 3 2 2 2 2 3 2 4 4 5 6 7 7
5 5 5 4 4 4 5 4 4 5 5 5 5 5 5 5 5 4 4 4 4 2 2 3 3 3 2 2 2 2 2 2 3 3 3 3 2 3 3 4 5 6 7
5 5 4 4 3 4 5 5 5 5 5 5 5 5 5 5 4 4 4 5 4 4 3 3 3 2 2 2 2 3 2 3 2 2 2 2 2 2 2 3 4 5 5
6 5 6 6 5 6 6 6 6 6 5 5 5 5 5 5 5 5 5 5 4 4 3 3 3 3 3 2 2 2 2 2 3 3 3 2 3 3 3 3 3 4 5
5 5 5 6 6 6 6 6 6 7 6 5 6 6 6 6 6 6 6 5 5 4 3 3 3 3 3 3 2 3 3 3 2 2 2 2 1 3 3 3 4 4 4
6 6 6 6 6 6 5 6 6 6 5 4 4 4 4 4 4 4 3 3 4 4 4 4 4 3 3 4 4 3 3 3 3 3 3 3 3 3 2 2 2 2 2
8 7 7 7 6 6 6 5 5 5 4 4 5 5 6 6 6 6 5 5 4 4 4 4 3 3 3 3 2 3 4 5 4 4 4 4 4 4 4 3 3 2 2
6 6 7 7 6 6 6 5 5 5 5 6 7 7 6 6 6 6 5 5 5 4 4 4 4 4 3 3 5 5 6 6 5 5 4 3 2 1 1 2 4 4 4
6 6 6 6 6 6 6 5 5 5 5 6 6 5 6 6 7 7 7 6 6 6 6 6 5 6 3 6 6 6 7 7 6 6 5 4 3 2 2 2 2 2 4
6 6 6 6 6 6 6 5 5 5 5 6 5 5 6 6 7 7 7 8 8 8 8 8 7 7 7 6 7 6 8 8 7 7 6 6 4 4 4 4 3 3 4
7 7 6 7 6 6 6 6 5 6 6 6 6 6 7 8 8 9 9 10 10 10 10 9 9 9 8 7 8 7 8 8 8 8 8 8 7 6 6 6 6 6 6
7 7 6 7 7 7 6 7 7 7 7 8 8 8 8 9 10 11 11 11 11 11 11 10 11 12 11 10 10 10 11 10 10 10 9 9 9 9 10 9 9 9 8
7 7 6 7 8 8 8 8 9 9 10 9 9 9 10 11 12 12 12 12 13 12 12 12 12 11 11 11 10 10 10 11 10 10 10 9 9 10 10 10 9 10 9
7 7 8 9 9 8 9 10 11 11 10 10 10 11 12 13 13 14 13 13 12 12 12 12 11 11 10 9 9 10 9 10 10 10 9 9 9 10 11 11 9 9 8
9 9 9 10 10 10 10 12 12 12 12 12 12 13 13 13 13 13 13 13 12 12 12 11 11 10 9 8 8 9 9 9 9 9 8 7 8 9 10 10 10 10 8
10 9 10 11 11 11 12 13 13 12 13 13 13 13 14 13 13 14 13 12 12 12 12 12 11 10 9 8 8 9 9 9 9 8 8 9 9 9 9 9 9 9 9
10 10 11 12 13 13 12 13 13 13 13 13 14 14 14 14 13 12 12 12 12 12 12 12 11 11 10 10 9 9 8 8 8 8 9 9 10 9 9 9 8 8 9
11 12 13 14 14 14 14 14 13 13 13 14 14 14 14 13 12 12 12 12 11 11 11 10 10 10 10 10 9 10 9 8 9 9 10 10 10 10 9 9 8 7 6
13 13 14 15 15 14 14 13 13 13 14 15 14 14 13 12 12 12 12 11 10 10 10 10 10 9 9 9 10 10 10 11 11 10 11 11 10 9 9 8 7 6 5

GFSMW_con_lsi_138.txt.gz
Lid_Strength_Index
5 5 3 2 2 2 2 2 2 1 1 1 2 2 2 1 1 1 0 -0 0 0 1 0 0 0 1 1 2 2 3 3 3 3 2 1 1 3 2 1 1 -0 -1
5 5 4 3 3 3 2 2 2 1 1 1 1 1 1 1 0 0 1 0 0 0 0 1 1 1 1 1 2 3 3 3 3 3 3 4 3 2 1 2 0 0 -1
5 5 5 4 3 3 2 2 2 1 1 2 2 1 1 1 1 1 1 1 1 1 1 1 1 1 1 1 2 2 2 3 2 2 3 5 6 4 2 1 1 0 0
5 5 4 4 3 3 2 3 2 2 2 3 3 3 3 3 2 1 1 0 -0 0 1 1 1 1 1 1 2 2 2 2 3 2 2 4 4 5 5 3 1 1 1
5 4 4 3 3 2 2 2 2 2 2 3 2 3 2 2 2 2 1 1 1 1 0 1 1 1 1 1 1 2 2 2 2 2 3 3 4 4 5 5 3 3 1
5 4 4 3 4 3 2 2 3 3 3 2 2 2 2 2 2 2 2 2 1 1 0 0 1 1 1 1 1 1 1 1 2 2 3 3 4 4 5 5 4 4 2
7 5 4 5 6 5 3 2 2 3 3 1 1 1 2 2 2 3 3 3 3 3 3 1 1 1 1 1 1 2 2 1 2 2 3 3 4 4 4 4 4 5 3
7 5 5 5 4 4 3 3 3 2 2 3 4 4 4 4 4 4 4 4 4 3 2 1 1 1 2 2 2 2 2 3 2 3 3 2 3 3 4 4 4 5 5
6 5 5 4 4 3 3 3 3 4 4 5 5 5 4 4 5 5 4 4 4 3 3 2 2 2 2 2 2 2 3 2 2 2 2 3 2 2 3 3 4 3 5
6 5 5 4 5 4 4 4 5 5 5 5 5 5 5 4 5 5 5 4 4 4 4 4 4 3 3 3 2 2 2 2 3 2 2 2 2 2 2 2 2 3 3
7 8 7 7 6 6 6 6 6 6 6 6 6 5 5 6 6 6 6 6 5 5 5 5 4 4 4 3 3 3 2 4 3 2 2 1 1 1 1 1 1 2 3
7 7 7 6 6 5 5 5 6 6 6 6 6 7 7 7 7 7 7 7 6 5 4 3 3 3 3 2 3 4 3 3 3 3 3 3 2 3 3 2 3 2 2
8 7 6 6 6 6 6 6 6 6 6 7 7 8 8 8 9 8 6 5 5 5 5 5 5 5 5 4 4 4 4 5 5 4 5 5 5 5 5 4 4 3 2
7 7 6 6 6 6 6 6 6 7 7 7 8 8 8 7 7 7 7 7 7 7 7 7 7 6 6 5 5 6 5 5 5 5 4 4 4 4 3 4 4 3 3
7 7 6 6 6 6 6 6 6 6 6 7 7 7 7 7 8 8 8 8 8 8 8 8 8 8 8 7 6 7 7 6 6 6 6 5 4 4 3 3 3 3 4
6 6 6 6 7 7 7 7 7 7 7 7 7 7 7 8 8 8 9 9 10 10 10 10 10 10 9 9 8 8 8 7 7 8 7 7 6 6 5 4 4 4 4
7 7 7 7 8 8 8 9 8 7 7 8 8 8 9 9 9 9 10 11 12 11 11 11 11 10 10 9 9 9 9 10 10 10 10 9 8 8 8 8 7 7 7
8 8 8 9 9 9 9 9 8 8 9 9 9 9 10 11 11 11 12 12 12 12 12 11 11 11 11 10 10 9 9 9 8 8 8 8 8 7 8 8 9 8 8
9 10 10 10 11 10 10 11 10 10 10 11 11 11 11 12 12 12 13 12 12 12 12 12 11 11 10 10 9 9 9 9 8 8 7 8 8 8 8 8 9 9 8
10 11 11 12 12 12 10 11 12 12 12 12 12 12 12 12 12 12 12 12 12 12 12 11 10 10 9 9 10 9 9 9 9 8 7 7 7 8 9 8 8 9 8
12 12 12 13 12 12 12 13 13 13 13 12 12 12 12 12 12 12 12 13 13 11 11 10 9 9 9 9 9 9 9 9 9 8 8 7 8 9 9 9 8 8 7
12 12 13 13 13 13 13 13 14 13 13 13 12 12 12 11 12 13 13 12 11 11 10 10 10 9 8 8 8 9 9 8 8 8 7 8 9 10 9 9 9 9 8
12 12 13 14 13 13 13 14 14 13 13 13 13 12 12 12 12 12 12 11 10 11 11 11 10 10 8 7 8 8 9 8 8 8 8 8 9 9 9 9 9 9 8
13 13 13 14 14 14 14 14 13 13 13 13 12 12 13 12 12 11 11 10 10 11 10 10 10 9 8 8 7 8 8 8 7 7 7 8 9 9 9 9 9 9 9
14 14 15 15 15 14 14 14 13 13 13 12 12 13 13 13 11 11 10 10 10 9 10 10 9 9 10 9 10 10 9 8 8 10 10 10 9 9 9 8 8 9 9
14 15 15 15 15 15 14 14 13 13 12 13 14 13 13 12 11 11 11 10 10 10 10 10 10 9 10 11 11 11 11 11 12 11 10 10 9 9 8 8 7 7 7

GFSMW_con_lsi_141.txt.gz
Lid_Strength_Index
2 2 2 1 1 1 1 1 1 0 0 1 1 1 1 1 0 -0 -1 -1 -1 -1 -1 -0 -0 -0 0 0 -0 -0 1 1 0 1 1 1 0 -0 0 -0 -1 -1 -1
3 2 2 2 2 2 1 1 1 1 0 1 0 0 1 0 0 -0 -1 -1 -1 -1 -1 -1 -0 -0 0 0 0 0 1 1 0 2 2 4 3 1 0 0 -0 -0 -1
4 3 2 2 2 2 2 1 1 1 0 -0 0 0 -0 0 1 1 0 -0 -1 -1 -1 -1 -0 -0 -0 1 0 0 1 2 1 1 2 5 5 3 1 1 0 -0 -0
3 3 2 2 2 2 1 1 1 1 0 -0 1 1 2 2 1 0 -0 -0 -1 -1 -1 -1 -0 -0 -0 0 0 0 1 1 3 1 1 2 2 5 5 2 1 0 0
3 3 3 2 1 1 1 1 1 1 0 0 0 1 1 1 1 0 0 -0 -0 -1 -0 -1 -1 0 0 0 0 1 1 1 2 2 2 2 2 2 4 5 3 1 0
3 3 2 2 1 1 1 1 1 1 0 0 0 1 1 1 1 1 1 1 0 -0 -0 -1 -0 -0 -0 0 0 0 0 1 1 1 2 2 3 4 3 4 3 3 1
3 3 3 2 2 2 1 1 1 2 1 1 1 0 1 1 1 1 1 1 1 1 0 -0 -0 -0 -0 -0 -0 0 1 0 1 1 2 1 2 1 2 3 3 3 2
4 3 3 2 2 2 2 1 2 2 1 1 1 1 0 1 2 2 2 2 2 2 0 0 -0 -1 -1 -0 -0 0 0 0 1 1 1 1 1 1 1 2 3 4 3
3 3 3 2 2 2 2 2 2 2 1 1 2 2 2 2 2 2 2 3 2 3 2 2 2 1 1 1 -1 0 0 0 0 0 0 1 1 0 1 1 1 3 5
5 4 4 3 3 2 2 1 1 2 3 3 3 3 2 2 2 2 2 2 2 2 2 2 2 2 2 2 1 2 1 0 0 0 0 0 0 0 0 1 1 1 2
5 5 4 3 3 2 3 3 3 3 3 3 3 4 4 3 3 4 4 3 3 3 3 3 4 4 3 3 2 1 0 1 1 0 1 1 0 1 1 1 1 2 2
5 4 4 3 3 3 3 3 3 4 4 4 5 4 5 5 5 5 5 4 4 4 5 5 5 5 4 2 2 2 1 1 1 1 0 1 0 2 2 2 1 1 1
5 4 4 4 4 4 4 5 5 6 5 5 5 6 5 5 5 5 5 4 4 5 6 5 4 5 4 4 3 3 4 3 3 2 1 1 1 2 2 2 2 3 3
6 5 5 5 5 5 6 6 6 6 6 6 6 5 6 6 6 6 5 5 5 5 5 5 6 5 5 5 5 4 5 4 4 3 2 2 2 2 1 1 1 1 1
5 5 5 5 6 6 6 6 6 5 6 6 6 6 6 6 6 6 6 6 6 6 6 6 6 6 6 6 7 6 6 5 5 4 4 4 4 4 4 3 2 1 2
6 5 5 5 6 6 6 5 5 5 5 6 6 6 6 6 6 6 6 6 6 6 6 7 7 6 6 9 9 8 7 6 6 6 6 5 6 6 6 6 6 5 5
6 6 6 7 8 8 7 7 7 6 6 7 7 7 7 7 7 7 7 7 7 7 7 7 7 6 6 9 10 9 7 7 7 7 6 6 5 5 5 5 5 5 5
7 7 8 9 8 8 8 7 7 7 7 7 8 8 8 8 8 8 8 7 7 7 7 7 7 7 7 9 10 9 6 6 7 7 7 7 6 6 6 6 6 6 5
9 9 9 9 9 8 8 8 8 9 9 8 8 8 8 8 8 8 8 8 8 7 7 7 7 7 6 8 9 8 7 6 6 6 6 7 7 8 8 7 7 7 6
10 10 10 10 9 9 9 8 9 9 9 8 8 8 8 8 8 8 8 8 7 7 8 8 7 6 6 8 9 9 8 8 7 6 5 6 6 7 8 7 7 8 8
10 10 9 10 10 9 9 9 9 9 9 9 9 8 8 8 8 8 8 8 8 8 8 7 6 6 6 5 8 8 8 8 8 7 6 5 7 8 9 9 7 7 6
9 9 10 10 10 10 9 10 10 10 9 9 8 8 8 8 9 9 8 8 8 8 8 7 7 6 5 7 7 8 9 8 8 7 5 4 8 9 9 8 8 9 9
9 9 10 10 10 10 10 10 10 10 9 8 8 8 8 9 9 9 8 8 7 8 9 8 8 8 7 6 7 8 10 9 8 7 7 9 9 10 9 9 9 9 9
10 10 10 10 11 10 10 10 10 10 9 9 9 9 10 11 10 7 7 9 8 9 9 9 9 8 8 7 7 8 7 7 7 7 6 7 9 9 9 9 8 8 8
11 10 11 11 11 11 11 10 10 9 9 9 9 11 11 11 9 8 8 8 7 9 9 10 10 10 11 10 11 11 10 10 9 10 8 7 7 7 6 6 5 5 7
10 11 11 11 11 11 11 10 10 9 10 9 11 12 12 12 10 10 9 10 10 11 11 11 11 10 11 12 12 12 12 12 11 9 8 7 6 6 6 5 5 5 5

GFSMW_con_lsi_147.txt.gz
Lid_Strength_Index
2 2 1 1 1 1 1 1 1 0 0 1 1 1 1 0 0 -0 -1 -1 -1 -1 -1 -0 -0 -1 -0 -0 -1 -0 0 1 0 1 2 1 0 0 -0 -0 -0 -0 -0
3 2 2 1 1 1 1 1 1 0 0 0 0 0 0 0 -0 -0 -1 -1 -1 -1 -0 -1 -0 -0 0 -0 -0 0 1 1 0 2 2 4 2 1 0 -0 0 1 -0
3 2 2 1 1 1 1 0 0 0 0 -0 0 0 -0 0 1 0 0 -0 -1 -1 -1 -1 -0 -1 -0 -0 0 1 1 2 1 0 2 4 5 3 1 1 0 1 0
2 2 2 2 1 1 0 0 0 0 -0 -0 0 0 2 2 1 1 1 0 -1 -0 -1 -0 -0 -0 -0 -0 0 0 0 1 2 1 1 1 2 4 5 2 1 1 1
2 2 2 1 1 1 1 0 -0 0 -0 -0 -0 0 1 1 0 -0 -0 -0 -1 -1 -1 -0 -0 0 -0 -1 -0 -0 0 1 1 2 2 2 2 2 4 5 3 2 1
2 2 1 1 1 1 0 0 0 0 -0 0 -0 1 1 1 1 1 0 0 -0 -1 -0 -0 -0 -0 0 0 0 -0 0 0 1 1 1 2 3 3 3 4 4 3 2
2 2 2 2 1 1 0 1 1 1 0 0 0 0 1 0 1 0 -0 1 1 1 -0 -1 -0 -0 -0 -0 -0 -0 0 0 1 1 1 1 1 2 2 3 3 4 2
2 2 2 1 1 1 0 1 1 1 1 1 1 0 1 1 1 0 1 1 1 0 -1 -1 -1 -0 -0 -0 -1 -0 0 0 0 1 1 1 1 1 1 2 3 5 4
2 2 2 1 1 1 1 1 1 1 1 1 1 0 0 0 1 -0 -0 0 -0 0 -0 -0 -0 -0 -0 -1 -0 0 0 -0 -0 0 0 1 1 1 0 1 1 3 6
3 2 2 2 1 2 1 1 1 2 1 1 0 0 0 0 -0 -0 0 0 0 1 1 1 1 1 1 1 0 0 -0 -0 1 1 0 0 0 0 0 1 1 2 3
4 3 3 2 2 1 1 2 2 1 1 0 0 1 1 1 0 1 1 1 1 2 2 2 2 3 3 2 2 2 2 2 1 -0 0 0 -0 1 0 0 1 1 2
4 3 3 3 3 2 2 2 1 2 2 1 1 2 2 2 2 2 2 3 3 3 4 4 4 5 5 4 4 3 3 3 2 2 1 1 1 1 0 1 1 1 1
4 4 3 3 3 2 1 2 2 2 2 2 2 2 2 2 2 2 3 4 4 4 4 4 5 4 4 3 3 2 2 2 1 1 1 1 1 1 1 1 1 1 1
4 3 3 3 2 2 2 3 2 2 2 3 3 3 3 4 4 4 4 4 4 4 4 3 2 2 1 2 4 4 4 3 2 2 2 2 2 4 3 3 3 2 2
4 4 3 3 3 3 3 3 4 3 3 4 4 5 5 5 5 5 5 4 4 4 3 2 2 2 2 5 5 5 4 4 3 3 4 4 4 5 4 5 4 4 4
4 4 3 3 3 4 3 4 4 5 5 5 5 5 5 4 4 4 3 3 2 2 2 2 2 2 4 8 7 7 5 4 4 4 4 4 4 4 4 4 4 5 5
4 3 3 3 3 3 3 4 3 4 4 4 5 4 4 4 3 3 3 3 2 2 3 3 3 3 5 8 8 7 4 3 3 3 3 3 3 4 5 5 5 5 5
4 3 3 2 3 2 3 3 2 3 4 4 5 4 4 3 3 3 3 3 3 3 3 3 3 4 4 7 8 7 3 3 3 4 3 4 4 4 4 4 5 5 4
3 3 3 3 3 3 3 3 4 5 5 5 4 4 3 3 3 4 4 4 4 4 4 4 3 3 3 7 8 7 5 5 4 4 3 4 4 5 7 5 6 5 5
5 5 6 5 5 4 4 4 5 6 6 5 4 3 3 3 4 4 5 5 4 4 4 4 3 4 4 7 8 7 5 5 5 5 4 5 5 8 9 8 7 8 7
6 6 5 6 6 5 5 5 6 6 5 4 4 3 3 4 5 5 5 5 4 4 4 4 4 3 4 4 8 9 6 7 7 6 5 4 8 9 9 9 8 8 7
6 7 6 6 6 5 5 6 6 5 4 4 4 4 4 5 5 6 5 5 4 5 5 4 4 4 3 6 8 9 10 9 8 7 5 5 8 9 9 8 8 9 9
6 6 7 7 6 6 5 5 5 5 4 4 4 4 4 5 5 5 5 5 5 6 5 5 5 5 4 4 8 9 10 9 8 6 6 8 9 8 6 6 8 6 4
6 6 6 7 7 6 5 5 5 4 4 5 5 4 4 6 5 5 5 5 6 6 6 7 7 6 6 7 8 8 7 7 6 6 4 5 7 7 7 5 5 5 4
5 5 6 6 6 6 6 5 5 4 4 5 5 5 5 5 6 6 5 5 6 8 7 9 9 9 9 9 11 11 9 7 7 7 3 5 7 7 7 7 6 6 4
6 6 6 6 7 6 6 5 5 5 5 5 5 6 6 6 7 6 5 9 9 10 11 11 11 10 11 11 11 11 11 10 9 4 5 6 7 8 8 8 8 7 6